Home   Weather   Hialeah   Past weeks

Flag for USA Past Weather in Hialeah, Florida, USA — Yesterday and Last 2 Weeks

Now
80 °F

Scattered clouds.


Feels Like: 82 °F
Forecast: 70 / 86 °F
Wind: 13 mph from Northeast

Location: Opa Locka Airport

Current Time: Feb 19, 2017 at 6:40:12 pm

Latest Report: Feb 19, 2017 at 5:53 pm


Visibility: 10 mi

Pressure: 30.01 "Hg

Humidity: 64%

Dew Point: 67 °F

Location of HialeahLocation

Past Weather in Hialeah — Graph

°F

Hialeah Temperature Yesterday

Maximum temperature yesterday: 82 °F (at 3:53 pm)
Minimum temperature yesterday: 62 °F (at 12:53 am)
Average temperature yesterday: 72 °F

High & Low Weather Summary for the Past Weeks

 TemperatureHumidityPressure
High88 °F (Feb 19, 3:53 pm)100% (Feb 9, 6:53 am)30.34 "Hg (Feb 9, 6:53 am)
Low34 °F (Feb 9, 6:53 am)40% (Feb 19, 3:53 pm)29.87 "Hg (Feb 15, 6:53 pm)
Average73 °F69%30.09 "Hg
* Reported Feb 4 5:53 pm — Feb 19 5:27 pm, Hialeah, Weather by CustomWeather, © 2017

Note: Actual official high and low records may vary slightly from our data, if they occured in-between our weather recording intervals... More about our weather records

Advertising

Hialeah Weather History for the Previous 24 Hours

Scroll right to see more
 ConditionsComfort  
Time TempWeatherWind HumidityBarometerVisibility
5:27 pm
Sun, Feb 19
81 °FBroken clouds.15 mph65%30.01 "Hg10 mi
4:53 pm86 °FPartly sunny.10 mph40%29.99 "Hg10 mi
3:53 pm88 °FSunny.10 mph40%29.99 "Hg10 mi
2:53 pm86 °FScattered clouds.13 mph45%30.00 "Hg10 mi
1:53 pm87 °FSunny.15 mph46%30.01 "Hg10 mi
12:53 pm86 °FPassing clouds.13 mph51%30.03 "Hg10 mi
11:53 am85 °FPassing clouds.10 mph53%30.06 "Hg10 mi
10:53 am82 °FScattered clouds.10 mph63%30.08 "Hg10 mi
9:53 am82 °FPassing clouds.10 mph70%30.08 "HgN/A
8:53 am78 °FSunny.9 mph84%30.07 "HgN/A
7:53 am73 °FFog.3 mph97%30.06 "Hg5 mi
7:04 am69 °FFog.No wind93%30.05 "Hg5 mi
6:38 am71 °FFog.No wind93%30.04 "Hg2 mi
5:53 am71 °FClear.5 mph90%30.03 "Hg7 mi
4:53 am71 °FClear.6 mph93%30.01 "Hg8 mi
3:53 am73 °FClear.3 mph90%30.01 "Hg9 mi
2:53 am73 °FClear.6 mph88%30.01 "Hg10 mi
1:53 am73 °FClear.6 mph88%30.03 "Hg10 mi
12:53 am72 °FClear.6 mph87%30.03 "Hg10 mi
11:53 pm
Sat, Feb 18
73 °FClear.5 mph84%30.04 "Hg10 mi
10:53 pm72 °FClear.6 mph84%30.05 "Hg10 mi
9:53 pm74 °FClear.3 mph79%30.06 "Hg10 mi
8:53 pm74 °FClear.6 mph79%30.04 "Hg10 mi
7:53 pm75 °FClear.8 mph76%30.02 "Hg10 mi
6:53 pm76 °FClear.7 mph72%30.02 "Hg10 mi
Weather by CustomWeather, © 2017

See weather overviewHow to use our weather pages